TimeCST,TemperatureF,Dew PointF,Humidity,Sea Level PressureIn,VisibilityMPH,Wind Direction,Wind SpeedMPH,Gust SpeedMPH,PrecipitationIn,Events,Conditions,WindDirDegrees,DateUTC
12:15 AM,50.0,50.0,100,29.82,5.0,ESE,4.6,-,N/A,,Mostly Cloudy,120,2012-12-09 06:15:00
12:35 AM,51.8,50.0,94,29.81,5.0,Calm,Calm,-,N/A,,Partly Cloudy,0,2012-12-09 06:35:00
1:15 AM,50.0,50.0,100,29.80,3.0,Calm,Calm,-,N/A,,Scattered Clouds,0,2012-12-09 07:15:00
1:35 AM,50.0,50.0,100,29.81,2.5,Calm,Calm,-,N/A,,Mostly Cloudy,0,2012-12-09 07:35:00
1:55 AM,50.0,50.0,100,29.81,2.5,Calm,Calm,-,N/A,,Overcast,0,2012-12-09 07:55:00
2:15 AM,48.2,48.2,100,29.81,2.0,Calm,Calm,-,N/A,,Overcast,0,2012-12-09 08:15:00
2:35 AM,50.0,50.0,100,29.81,2.5,Calm,Calm,-,N/A,,Overcast,0,2012-12-09 08:35:00
2:55 AM,50.0,50.0,100,29.81,1.0,Calm,Calm,-,N/A,,Overcast,0,2012-12-09 08:55:00
3:15 AM,51.8,51.8,100,29.80,0.2,SE,3.5,-,N/A,Fog,Fog,130,2012-12-09 09:15:00
3:35 AM,51.8,51.8,100,29.80,0.2,Calm,Calm,-,N/A,Fog,Fog,0,2012-12-09 09:35:00
3:55 AM,51.8,51.8,100,29.80,0.2,Calm,Calm,-,N/A,Fog,Fog,0,2012-12-09 09:55:00
4:15 AM,51.8,51.8,100,29.80,0.2,SE,4.6,-,N/A,Fog,Fog,140,2012-12-09 10:15:00
4:35 AM,53.6,53.6,100,29.80,0.2,Calm,Calm,-,N/A,Fog,Fog,0,2012-12-09 10:35:00
4:55 AM,53.6,53.6,100,29.79,0.2,Calm,Calm,-,N/A,Fog,Fog,0,2012-12-09 10:55:00
5:15 AM,53.6,53.6,100,29.79,0.2,Calm,Calm,-,N/A,Fog,Fog,0,2012-12-09 11:15:00
5:35 AM,53.6,53.6,100,29.79,0.2,Calm,Calm,-,N/A,Fog,Fog,0,2012-12-09 11:35:00
6:50 AM,53.6,53.6,100,29.80,1.2,SE,5.8,-,N/A,Rain-Thunderstorm,Light Thunderstorms and Rain,140,2012-12-09 12:50:00
7:45 AM,53.6,53.6,100,29.77,2.0,East,6.9,-,N/A,Rain,Light Rain,100,2012-12-09 13:45:00
8:45 AM,53.6,53.6,100,29.79,0.1,Calm,Calm,-,N/A,Fog,Fog,0,2012-12-09 14:45:00
9:45 AM,53.6,53.6,100,29.80,0.1,Calm,Calm,-,N/A,Fog,Fog,0,2012-12-09 15:45:00
10:47 AM,53.6,53.6,100,29.82,0.1,NNW,6.9,-,N/A,Fog,Fog,340,2012-12-09 16:47:00
11:50 AM,53.6,53.6,100,29.81,1.5,NNW,11.5,-,N/A,,Overcast,340,2012-12-09 17:50:00
12:45 PM,48.2,48.2,100,29.80,1.5,NW,11.5,16.1,N/A,,Overcast,320,2012-12-09 18:45:00
1:45 PM,48.2,48.2,100,29.81,2.5,NW,9.2,-,N/A,,Overcast,310,2012-12-09 19:45:00
2:25 PM,46.4,46.4,100,29.83,5.0,NW,12.7,16.1,N/A,,Overcast,310,2012-12-09 20:25:00
3:52 PM,44.6,44.6,100,29.86,5.0,NW,12.7,18.4,N/A,,Overcast,320,2012-12-09 21:52:00
4:54 PM,44.6,42.8,93,29.86,7.0,NW,8.1,-,N/A,,Overcast,310,2012-12-09 22:54:00
5:55 PM,44.6,39.2,81,29.89,10.0,NW,13.8,17.3,N/A,,Overcast,310,2012-12-09 23:55:00
6:45 PM,44.6,39.2,81,29.91,10.0,NW,11.5,17.3,N/A,,Overcast,310,2012-12-10 00:45:00
7:55 PM,42.8,37.4,81,29.92,10.0,NW,15.0,23.0,N/A,,Overcast,320,2012-12-10 01:55:00
8:35 PM,41.0,35.6,81,29.93,7.0,NNW,18.4,21.9,N/A,,Overcast,330,2012-12-10 02:35:00
8:45 PM,41.0,35.6,81,29.94,10.0,NW,15.0,21.9,N/A,,Overcast,320,2012-12-10 02:45:00
8:55 PM,41.0,33.8,76,29.94,10.0,NNW,13.8,19.6,N/A,,Mostly Cloudy,330,2012-12-10 02:55:00
9:15 PM,41.0,33.8,76,29.94,10.0,NNW,11.5,18.4,N/A,,Overcast,330,2012-12-10 03:15:00
9:35 PM,39.2,32.0,75,29.95,10.0,NNW,11.5,-,N/A,,Overcast,330,2012-12-10 03:35:00
9:55 PM,39.2,32.0,75,29.95,10.0,NNW,10.4,-,N/A,,Mostly Cloudy,330,2012-12-10 03:55:00
10:15 PM,37.4,32.0,81,29.96,10.0,WNW,12.7,16.1,N/A,,Mostly Cloudy,300,2012-12-10 04:15:00
10:35 PM,35.6,28.4,75,29.97,10.0,NW,12.7,17.3,N/A,,Overcast,310,2012-12-10 04:35:00
10:55 PM,33.8,24.8,70,29.98,10.0,NW,15.0,19.6,N/A,,Mostly Cloudy,310,2012-12-10 04:55:00
11:15 PM,32.0,24.8,75,29.98,10.0,NW,12.7,21.9,N/A,,Scattered Clouds,320,2012-12-10 05:15:00
11:35 PM,32.0,24.8,75,29.98,10.0,NW,11.5,16.1,N/A,,Clear,310,2012-12-10 05:35:00
11:55 PM,32.0,24.8,75,29.98,10.0,NW,9.2,-,N/A,,Clear,310,2012-12-10 05:55:00